When you browse on this site, cookies collect data to enhance your experience and personalize the content and advertising you see.
Visit our Privacy Policy to learn more. By continuing to use the site, you agree to this use of cookies and data.

Meteo orario Kalat

Oggi, 14 Luglio, Martedi

Tempo Temperatura Precipitazioni Vento Pressione Umidità
00:00 +10°C° 0.1 mm 1 m/s 478 mm Hg 63%
01:00 +9°C° 0.1 mm 1 m/s 478 mm Hg 65%
02:00 +8°C° 0.1 mm 2 m/s 478 mm Hg 67%
03:00 +7°C° 0.4 mm 2 m/s 477 mm Hg 72%
04:00 +7°C° 0.4 mm 2 m/s 477 mm Hg 77%
05:00 +6°C° 0 mm 2 m/s 476 mm Hg 84%
06:00 +7°C° 0.1 mm 1 m/s 476 mm Hg 81%
07:00 +8°C° 0.1 mm 1 m/s 477 mm Hg 77%
08:00 +8°C° 0.1 mm 1 m/s 477 mm Hg 73%
09:00 +10°C° 0.1 mm 1 m/s 478 mm Hg 64%
10:00 +11°C° 0.1 mm 1 m/s 479 mm Hg 54%
11:00 +12°C° 0 mm 1 m/s 480 mm Hg 45%
12:00 +13°C° 0.2 mm 2 m/s 481 mm Hg 44%
13:00 +14°C° 0.2 mm 2 m/s 481 mm Hg 42%
14:00 +13°C° 0.2 mm 3 m/s 481 mm Hg 41%
15:00 +13°C° 0.4 mm 3 m/s 481 mm Hg 43%
16:00 +13°C° 0.4 mm 3 m/s 481 mm Hg 46%
17:00 +13°C° 0 mm 3 m/s 480 mm Hg 49%
18:00 +12°C° 0.2 mm 3 m/s 480 mm Hg 53%
19:00 +11°C° 0.2 mm 3 m/s 480 mm Hg 56%
20:00 +10°C° 0.2 mm 3 m/s 479 mm Hg 60%
21:00 +10°C° 0 mm 2 m/s 479 mm Hg 63%
22:00 +10°C° 0 mm 1 m/s 479 mm Hg 66%
23:00 +10°C° 0 mm 1 m/s 479 mm Hg 68%

Domani, 15 Luglio, Mercoledi

Tempo Temperatura Precipitazioni Vento Pressione Umidità
00:00 +10°C° 0 mm 1 m/s 479 mm Hg 70%
01:00 +9°C° 0 mm 1 m/s 478 mm Hg 72%
02:00 +9°C° 0 mm 1 m/s 478 mm Hg 74%
03:00 +8°C° 0 mm 1 m/s 478 mm Hg 76%
04:00 +8°C° 0 mm 1 m/s 477 mm Hg 77%
05:00 +7°C° 0 mm 0 m/s 477 mm Hg 79%
06:00 +8°C° 0 mm 0 m/s 478 mm Hg 72%
07:00 +8°C° 0 mm 0 m/s 479 mm Hg 64%
08:00 +9°C° 0 mm 0 m/s 479 mm Hg 57%
09:00 +11°C° 0 mm 1 m/s 480 mm Hg 51%
10:00 +13°C° 0 mm 1 m/s 481 mm Hg 46%
11:00 +14°C° 0 mm 1 m/s 481 mm Hg 40%
12:00 +14°C° 0.3 mm 2 m/s 481 mm Hg 42%
13:00 +14°C° 0.3 mm 2 m/s 481 mm Hg 43%
14:00 +14°C° 0.3 mm 3 m/s 481 mm Hg 44%
15:00 +13°C° 0.7 mm 3 m/s 480 mm Hg 51%
16:00 +11°C° 0.7 mm 3 m/s 479 mm Hg 58%
17:00 +10°C° 0.7 mm 2 m/s 479 mm Hg 65%
18:00 +10°C° 0.5 mm 2 m/s 478 mm Hg 68%
19:00 +9°C° 0.5 mm 2 m/s 478 mm Hg 71%
20:00 +9°C° 0.5 mm 2 m/s 478 mm Hg 73%
21:00 +9°C° 0.2 mm 2 m/s 478 mm Hg 73%
22:00 +9°C° 0.2 mm 2 m/s 478 mm Hg 73%
23:00 +9°C° 0.2 mm 1 m/s 479 mm Hg 74%

Dopodomani, 16 Luglio, Giovedi

Tempo Temperatura Precipitazioni Vento Pressione Umidità
00:00 +9°C° 0.1 mm 1 m/s 478 mm Hg 73%
01:00 +9°C° 0.1 mm 1 m/s 478 mm Hg 72%
02:00 +8°C° 0.1 mm 0 m/s 478 mm Hg 71%
03:00 +8°C° 0 mm 0 m/s 478 mm Hg 73%
04:00 +8°C° 0 mm 0 m/s 477 mm Hg 76%
05:00 +7°C° 0 mm 0 m/s 477 mm Hg 79%
06:00 +8°C° 0 mm 0 m/s 478 mm Hg 74%
07:00 +9°C° 0 mm 0 m/s 478 mm Hg 69%
08:00 +9°C° 0 mm 0 m/s 478 mm Hg 63%
09:00 +11°C° 0.2 mm 1 m/s 479 mm Hg 58%
10:00 +12°C° 0.2 mm 1 m/s 480 mm Hg 52%
11:00 +13°C° 0.2 mm 1 m/s 480 mm Hg 46%
12:00 +14°C° 0.3 mm 2 m/s 480 mm Hg 48%
13:00 +14°C° 0.3 mm 2 m/s 480 mm Hg 50%
14:00 +13°C° 0.3 mm 3 m/s 480 mm Hg 52%
15:00 +13°C° 0.9 mm 2 m/s 480 mm Hg 58%
16:00 +12°C° 0.9 mm 2 m/s 479 mm Hg 64%
17:00 +10°C° 0.9 mm 2 m/s 478 mm Hg 69%
18:00 +10°C° 0.5 mm 2 m/s 478 mm Hg 70%
19:00 +11°C° 0.5 mm 1 m/s 478 mm Hg 70%
20:00 +10°C° 0.5 mm 1 m/s 478 mm Hg 70%
21:00 +10°C° 0 mm 1 m/s 478 mm Hg 71%
22:00 +10°C° 0 mm 1 m/s 478 mm Hg 71%
23:00 +10°C° 0 mm 1 m/s 478 mm Hg 72%

17 Luglio, Venerdi

Tempo Temperatura Precipitazioni Vento Pressione Umidità
00:00 +8°C° 0 mm 0 m/s 478 mm Hg 73%
01:00 +8°C° 0 mm 0 m/s 478 mm Hg 74%
02:00 +8°C° 0 mm 0 m/s 478 mm Hg 76%
03:00 +8°C° 0 mm 0 m/s 478 mm Hg 77%
04:00 +7°C° 0 mm 0 m/s 477 mm Hg 79%
05:00 +7°C° 0 mm 0 m/s 477 mm Hg 80%
06:00 +8°C° 0.1 mm 0 m/s 478 mm Hg 75%
07:00 +8°C° 0.1 mm 0 m/s 478 mm Hg 69%
08:00 +9°C° 0.1 mm 0 m/s 479 mm Hg 64%
09:00 +10°C° 0.2 mm 0 m/s 480 mm Hg 59%
10:00 +12°C° 0.2 mm 1 m/s 480 mm Hg 55%
11:00 +13°C° 0.2 mm 1 m/s 481 mm Hg 50%
12:00 +13°C° 0.5 mm 1 m/s 481 mm Hg 55%
13:00 +13°C° 0.5 mm 2 m/s 480 mm Hg 59%
14:00 +12°C° 0.5 mm 2 m/s 480 mm Hg 64%
15:00 +12°C° 0.8 mm 2 m/s 479 mm Hg 67%
16:00 +10°C° 0.8 mm 2 m/s 479 mm Hg 70%
17:00 +10°C° 0.8 mm 2 m/s 479 mm Hg 73%
18:00 +10°C° 0.3 mm 2 m/s 479 mm Hg 71%
19:00 +11°C° 0.3 mm 1 m/s 479 mm Hg 69%
20:00 +11°C° 0.3 mm 1 m/s 479 mm Hg 68%
21:00 +11°C° 0 mm 1 m/s 479 mm Hg 68%
22:00 +10°C° 0 mm 1 m/s 479 mm Hg 69%
23:00 +10°C° 0 mm 1 m/s 479 mm Hg 69%

18 Luglio, Sabato

Tempo Temperatura Precipitazioni Vento Pressione Umidità
00:00 +10°C° 0 mm 1 m/s 479 mm Hg 71%
01:00 +9°C° 0 mm 1 m/s 479 mm Hg 72%
02:00 +9°C° 0 mm 1 m/s 478 mm Hg 74%
03:00 +9°C° 0 mm 1 m/s 478 mm Hg 75%
04:00 +8°C° 0 mm 1 m/s 478 mm Hg 76%
05:00 +8°C° 0 mm 1 m/s 477 mm Hg 77%
06:00 +9°C° 0 mm 1 m/s 478 mm Hg 71%
07:00 +10°C° 0 mm 1 m/s 479 mm Hg 65%
08:00 +10°C° 0 mm 1 m/s 479 mm Hg 59%
09:00 +10°C° 0 mm 2 m/s 480 mm Hg 54%
10:00 +13°C° 0 mm 2 m/s 481 mm Hg 49%
11:00 +14°C° 0 mm 2 m/s 481 mm Hg 44%
12:00 +14°C° 0.1 mm 2 m/s 482 mm Hg 44%
13:00 +14°C° 0.1 mm 3 m/s 482 mm Hg 43%
14:00 +14°C° 0.1 mm 3 m/s 482 mm Hg 43%
15:00 +13°C° 0.2 mm 3 m/s 481 mm Hg 46%
16:00 +13°C° 0.2 mm 3 m/s 481 mm Hg 48%
17:00 +14°C° 0.2 mm 2 m/s 481 mm Hg 51%
18:00 +13°C° 0.1 mm 2 m/s 480 mm Hg 53%
19:00 +12°C° 0.1 mm 2 m/s 480 mm Hg 54%
20:00 +12°C° 0.1 mm 2 m/s 480 mm Hg 56%
21:00 +10°C° 0 mm 2 m/s 480 mm Hg 57%
22:00 +10°C° 0 mm 2 m/s 480 mm Hg 57%
23:00 +10°C° 0 mm 2 m/s 479 mm Hg 57%

19 Luglio, Domenica

Tempo Temperatura Precipitazioni Vento Pressione Umidità
00:00 +9°C° 0 mm 2 m/s 479 mm Hg 59%
01:00 +9°C° 0 mm 2 m/s 478 mm Hg 61%
02:00 +9°C° 0 mm 1 m/s 478 mm Hg 63%
03:00 +9°C° 0 mm 1 m/s 478 mm Hg 64%
04:00 +8°C° 0 mm 1 m/s 477 mm Hg 66%
05:00 +8°C° 0 mm 1 m/s 477 mm Hg 67%
06:00 +8°C° 0 mm 1 m/s 477 mm Hg 62%
07:00 +8°C° 0 mm 2 m/s 478 mm Hg 57%
08:00 +9°C° 0 mm 2 m/s 478 mm Hg 52%
09:00 +10°C° 0 mm 2 m/s 479 mm Hg 47%
10:00 +12°C° 0 mm 2 m/s 479 mm Hg 43%
11:00 +13°C° 0 mm 2 m/s 480 mm Hg 38%
12:00 +12°C° 0 mm 3 m/s 480 mm Hg 37%
13:00 +13°C° 0 mm 3 m/s 480 mm Hg 36%
14:00 +13°C° 0 mm 3 m/s 480 mm Hg 36%
15:00 +13°C° 0 mm 4 m/s 480 mm Hg 38%
16:00 +13°C° 0 mm 4 m/s 479 mm Hg 41%
17:00 +12°C° 0 mm 4 m/s 479 mm Hg 44%
18:00 +12°C° 0 mm 4 m/s 478 mm Hg 45%
19:00 +11°C° 0 mm 4 m/s 478 mm Hg 47%
20:00 +11°C° 0 mm 4 m/s 478 mm Hg 48%
21:00 +10°C° 0 mm 3 m/s 477 mm Hg 50%
22:00 +9°C° 0 mm 3 m/s 477 mm Hg 53%
23:00 +9°C° 0 mm 3 m/s 477 mm Hg 55%
Mostrare altro